| time (UTC) | temp F | wind direction | speed MPH | gust MPH | rain 1hr in | rain 24hr in | rain mn in | humidity % | barometer mb |
| 20260502152259 | 64 | 339 | 0.0 | 0.0 | 0.00 | 0.00 | 0.00 | 78 | 1019.4 |
| 20260502151756 | 64 | 329 | 0.0 | 0.0 | 0.00 | 0.00 | 0.00 | 78 | 1019.8 |
| 20260502151253 | 63 | 341 | 0.0 | 0.0 | 0.00 | 0.00 | 0.00 | 80 | 1019.7 |
| 20260502150751 | 63 | 339 | 0.0 | 0.0 | 0.00 | 0.00 | 0.00 | 79 | 1019.7 |
| 20260502150247 | 62 | 350 | 0.0 | 0.0 | 0.00 | 0.00 | 0.00 | 79 | 1019.8 |
| 20260502130636 | 53 | 337 | 0.0 | 0.0 | 0.00 | 0.00 | 0.00 | 95 | 1018.7 |
| 20260502130134 | 53 | 343 | 0.0 | 0.0 | 0.00 | 0.00 | 0.00 | 95 | 1018.8 |
| 20260502123620 | 51 | 338 | 0.0 | 0.0 | 0.00 | 0.00 | 0.00 | 95 | 1018.1 |
| 20260502123115 | 51 | 346 | 0.0 | 0.0 | 0.00 | 0.00 | 0.00 | 95 | 1017.8 |
| 20260502122612 | 51 | 350 | 0.0 | 0.0 | 0.00 | 0.00 | 0.00 | 95 | 1017.8 |
| 20260502122109 | 51 | 352 | 0.0 | 0.0 | 0.00 | 0.00 | 0.00 | 95 | 1017.9 |
| 20260502121607 | 51 | 353 | 0.0 | 0.0 | 0.00 | 0.00 | 0.00 | 95 | 1017.7 |
| 20260502121104 | 51 | 349 | 0.0 | 0.0 | 0.00 | 0.00 | 0.00 | 95 | 1017.5 |
| 20260502120600 | 51 | 332 | 0.0 | 0.0 | 0.00 | 0.00 | 0.00 | 95 | 1017.7 |
| 20260502115556 | 50 | 354 | 0.0 | 0.0 | 0.00 | 0.00 | 0.00 | 95 | 1017.4 |
| 20260502115051 | 50 | 339 | 0.0 | 0.0 | 0.00 | 0.00 | 0.00 | 95 | 1017.5 |
| 20260502114547 | 50 | 339 | 0.0 | 0.0 | 0.00 | 0.00 | 0.00 | 95 | 1017.4 |
| 20260502114044 | 51 | 339 | 0.0 | 0.0 | 0.00 | 0.00 | 0.00 | 95 | 1017.4 |
| 20260502113542 | 51 | 339 | 0.0 | 0.0 | 0.00 | 0.00 | 0.00 | 95 | 1017.4 |
| 20260502113041 | 51 | 339 | 0.0 | 0.0 | 0.00 | 0.00 | 0.00 | 95 | 1017.3 |
| 20260502112538 | 51 | 339 | 0.0 | 0.0 | 0.00 | 0.00 | 0.00 | 95 | 1017.4 |
| 20260502112035 | 51 | 339 | 0.0 | 0.0 | 0.00 | 0.00 | 0.00 | 95 | 1017.2 |
| 20260502111532 | 51 | 339 | 0.0 | 0.0 | 0.00 | 0.00 | 0.00 | 95 | 1017.1 |
| 20260502111030 | 51 | 339 | 0.0 | 0.0 | 0.00 | 0.00 | 0.00 | 95 | 1017.2 |
| 20260502110527 | 51 | 339 | 0.0 | 0.0 | 0.00 | 0.00 | 0.00 | 95 | 1017.0 |
| 20260502110025 | 51 | 345 | 0.0 | 0.0 | 0.00 | 0.00 | 0.00 | 95 | 1016.9 |
| 20260502105522 | 51 | 347 | 0.0 | 0.0 | 0.00 | 0.00 | 0.00 | 95 | 1017.0 |
| 20260502105019 | 51 | 339 | 0.0 | 0.0 | 0.00 | 0.00 | 0.00 | 95 | 1016.9 |
| 20260502104516 | 51 | 340 | 0.0 | 0.0 | 0.00 | 0.00 | 0.00 | 95 | 1016.6 |
| 20260502104014 | 51 | 336 | 0.0 | 0.0 | 0.00 | 0.00 | 0.00 | 95 | 1016.8 |
| 20260502103511 | 51 | 354 | 0.0 | 0.0 | 0.00 | 0.00 | 0.00 | 95 | 1016.8 |
| 20260502103009 | 51 | 359 | 0.0 | 0.0 | 0.00 | 0.00 | 0.00 | 95 | 1016.7 |
| 20260502102505 | 51 | 352 | 0.0 | 0.0 | 0.00 | 0.00 | 0.00 | 95 | 1016.6 |
| 20260502102003 | 51 | 350 | 0.0 | 0.0 | 0.00 | 0.00 | 0.00 | 95 | 1016.6 |
| 20260502101500 | 51 | 330 | 0.0 | 0.0 | 0.00 | 0.00 | 0.00 | 95 | 1016.6 |
| 20260502100959 | 51 | 342 | 0.0 | 0.0 | 0.00 | 0.00 | 0.00 | 95 | 1016.5 |
| 20260502100457 | 51 | 343 | 0.0 | 0.0 | 0.00 | 0.00 | 0.00 | 95 | 1016.4 |
| 20260502091431 | 51 | 347 | 0.0 | 0.0 | 0.00 | 0.00 | 0.00 | 95 | 1015.8 |
| 20260502090928 | 51 | 347 | 0.0 | 0.0 | 0.00 | 0.00 | 0.00 | 95 | 1015.5 |
| 20260502090425 | 51 | 331 | 0.0 | 0.0 | 0.00 | 0.00 | 0.00 | 95 | 1015.2 |
| 20260502071320 | 53 | 326 | 0.0 | 0.0 | 0.00 | 0.00 | 0.00 | 95 | 1015.5 |
| 20260502070818 | 53 | 11 | 0.0 | 0.0 | 0.00 | 0.00 | 0.00 | 95 | 1015.5 |
| 20260502070315 | 53 | 337 | 0.0 | 0.0 | 0.00 | 0.00 | 0.00 | 95 | 1015.6 |
| 20260502065814 | 53 | 333 | 0.0 | 0.0 | 0.00 | 0.00 | 0.00 | 95 | 1015.5 |
| 20260502065312 | 53 | 331 | 0.0 | 0.0 | 0.00 | 0.00 | 0.00 | 95 | 1015.3 |
| 20260502064810 | 53 | 330 | 0.0 | 0.0 | 0.00 | 0.00 | 0.00 | 95 | 1015.3 |
| 20260502064308 | 53 | 335 | 0.0 | 0.0 | 0.00 | 0.00 | 0.00 | 95 | 1015.3 |
| 20260502063804 | 53 | 289 | 0.0 | 0.0 | 0.00 | 0.00 | 0.00 | 95 | 1015.4 |
| 20260502063303 | 53 | 336 | 0.0 | 0.0 | 0.00 | 0.00 | 0.00 | 95 | 1015.2 |
| 20260502062759 | 53 | 335 | 0.0 | 0.0 | 0.00 | 0.00 | 0.00 | 95 | 1015.3 |
| 20260502062257 | 53 | 333 | 0.0 | 0.0 | 0.00 | 0.00 | 0.00 | 95 | 1015.5 |
| 20260502061755 | 53 | 0 | 0.0 | 0.0 | 0.00 | 0.00 | 0.00 | 95 | 1015.1 |
| 20260502061253 | 53 | 152 | 0.0 | 0.0 | 0.00 | 0.00 | 0.00 | 95 | 1015.3 |
| 20260502060753 | 53 | 330 | 0.0 | 0.0 | 0.00 | 0.00 | 0.00 | 95 | 1015.0 |
| 20260502060248 | 53 | 330 | 0.0 | 0.0 | 0.00 | 0.00 | 0.00 | 95 | 1015.2 |
| 20260502055747 | 53 | 356 | 0.0 | 0.0 | 0.00 | 0.00 | 0.00 | 95 | 1015.1 |
| 20260502055244 | 52 | 327 | 0.0 | 0.0 | 0.00 | 0.00 | 0.00 | 95 | 1015.3 |
| 20260502054743 | 52 | 353 | 0.0 | 0.0 | 0.00 | 0.00 | 0.00 | 95 | 1015.1 |
| 20260502054241 | 53 | 331 | 0.0 | 0.0 | 0.00 | 0.00 | 0.00 | 95 | 1015.1 |
| 20260502053738 | 53 | 323 | 0.0 | 0.0 | 0.00 | 0.00 | 0.00 | 95 | 1015.2 |
| 20260502053235 | 53 | 335 | 0.0 | 0.0 | 0.00 | 0.00 | 0.00 | 95 | 1015.3 |
| 20260502052733 | 53 | 331 | 0.0 | 0.0 | 0.00 | 0.00 | 0.00 | 95 | 1015.5 |
| 20260502052231 | 53 | 333 | 0.0 | 0.0 | 0.00 | 0.00 | 0.00 | 95 | 1015.1 |
| 20260502051728 | 53 | 314 | 0.0 | 0.0 | 0.00 | 0.00 | 0.00 | 95 | 1015.3 |
| 20260502051227 | 53 | 331 | 0.0 | 0.0 | 0.00 | 0.00 | 0.00 | 95 | 1015.4 |
| 20260502050723 | 53 | 353 | 0.0 | 0.0 | 0.00 | 0.00 | 0.00 | 95 | 1015.4 |
| 20260502050219 | 53 | 331 | 0.0 | 0.0 | 0.00 | 0.00 | 0.00 | 95 | 1015.3 |
| 20260502045716 | 53 | 264 | 0.0 | 0.0 | 0.00 | 3.22 | 3.22 | 95 | 1015.1 |
| 20260502045213 | 53 | 353 | 0.0 | 0.0 | 0.00 | 3.22 | 3.22 | 95 | 1015.0 |
| 20260502044710 | 53 | 341 | 0.0 | 0.0 | 0.00 | 3.22 | 3.22 | 95 | 1014.9 |
| 20260502044206 | 53 | 330 | 0.0 | 0.0 | 0.00 | 3.22 | 3.22 | 95 | 1015.1 |
| 20260502043704 | 54 | 334 | 0.0 | 0.0 | 0.00 | 3.22 | 3.22 | 95 | 1015.0 |
| 20260502043201 | 54 | 343 | 0.0 | 0.0 | 0.00 | 3.22 | 3.22 | 95 | 1015.0 |
| 20260502042700 | 53 | 335 | 0.0 | 0.0 | 0.00 | 3.22 | 3.22 | 95 | 1015.1 |
| 20260502042158 | 53 | 321 | 0.0 | 0.0 | 0.00 | 3.22 | 3.22 | 95 | 1015.1 |
| 20260502041655 | 54 | 334 | 0.0 | 0.0 | 0.00 | 3.22 | 3.22 | 95 | 1015.0 |
| 20260502041152 | 54 | 310 | 0.0 | 0.0 | 0.00 | 3.22 | 3.22 | 95 | 1015.0 |
| 20260502040649 | 54 | 332 | 0.0 | 0.0 | 0.00 | 3.22 | 3.22 | 95 | 1014.9 |
| 20260502040146 | 54 | 343 | 0.0 | 0.0 | 0.00 | 3.22 | 3.22 | 95 | 1015.0 |
| 20260502035642 | 54 | 328 | 0.0 | 0.0 | 0.00 | 3.22 | 3.22 | 95 | 1015.3 |
| 20260502035139 | 54 | 332 | 0.0 | 0.0 | 0.00 | 3.22 | 3.22 | 95 | 1015.1 |
| 20260502034637 | 54 | 328 | 0.0 | 0.0 | 0.00 | 3.22 | 3.22 | 95 | 1015.0 |
| 20260502034136 | 54 | 340 | 0.0 | 0.0 | 0.00 | 3.22 | 3.22 | 95 | 1015.2 |
| 20260502033633 | 54 | 206 | 0.0 | 0.0 | 0.00 | 3.22 | 3.22 | 95 | 1015.2 |
| 20260502033131 | 54 | 106 | 0.0 | 0.0 | 0.00 | 3.22 | 3.22 | 95 | 1015.0 |
| 20260502032626 | 54 | 349 | 0.0 | 0.0 | 0.00 | 3.22 | 3.22 | 95 | 1015.1 |
| 20260502032123 | 54 | 349 | 0.0 | 0.0 | 0.00 | 3.22 | 3.22 | 95 | 1015.0 |
| 20260502031621 | 54 | 336 | 0.0 | 0.0 | 0.00 | 3.22 | 3.22 | 95 | 1014.6 |
| 20260502031118 | 54 | 341 | 0.0 | 0.0 | 0.00 | 3.22 | 3.22 | 95 | 1014.7 |
| 20260502030617 | 54 | 341 | 0.0 | 0.0 | 0.00 | 3.22 | 3.22 | 95 | 1014.5 |
| 20260502030115 | 54 | 340 | 0.0 | 0.0 | 0.00 | 3.22 | 3.22 | 95 | 1014.3 |
| 20260502025612 | 54 | 331 | 0.0 | 0.0 | 0.00 | 3.22 | 3.22 | 95 | 1014.3 |
| 20260502025110 | 54 | 343 | 0.0 | 0.0 | 0.00 | 3.22 | 3.22 | 95 | 1014.1 |
| 20260502024608 | 54 | 315 | 0.0 | 0.0 | 0.00 | 3.22 | 3.22 | 95 | 1013.8 |
| 20260502024106 | 54 | 334 | 0.0 | 0.0 | 0.00 | 3.22 | 3.22 | 95 | 1013.4 |
| 20260502023603 | 54 | 340 | 0.0 | 0.0 | 0.00 | 3.22 | 3.22 | 95 | 1013.5 |
| 20260502023100 | 54 | 343 | 0.0 | 0.0 | 0.00 | 3.22 | 3.22 | 95 | 1013.7 |
| 20260502022556 | 54 | 332 | 0.0 | 0.0 | 0.00 | 3.22 | 3.22 | 95 | 1013.6 |
| 20260502022054 | 54 | 308 | 0.0 | 0.0 | 0.00 | 3.22 | 3.22 | 95 | 1013.7 |
| 20260502021551 | 54 | 319 | 0.0 | 0.0 | 0.07 | 3.22 | 3.22 | 95 | 1013.7 |
| 20260502021048 | 54 | 343 | 0.0 | 0.0 | 0.07 | 3.22 | 3.22 | 95 | 1013.7 |
| 20260502020546 | 54 | 336 | 0.0 | 0.0 | 0.07 | 3.22 | 3.22 | 95 | 1013.5 |
| 20260502020042 | 54 | 333 | 0.0 | 0.0 | 0.00 | 3.21 | 3.21 | 95 | 1013.7 |
| 20260502015540 | 55 | 317 | 0.0 | 0.0 | 0.00 | 3.21 | 3.21 | 95 | 1013.5 |
| 20260502015036 | 55 | 322 | 0.0 | 0.0 | 0.00 | 3.21 | 3.21 | 95 | 1013.3 |
| 20260502014533 | 55 | 352 | 0.0 | 0.0 | 0.00 | 3.21 | 3.21 | 95 | 1013.4 |
| 20260502014030 | 55 | 334 | 0.0 | 0.0 | 0.00 | 3.21 | 3.21 | 95 | 1012.9 |
| 20260502013526 | 55 | 353 | 0.0 | 0.0 | 0.00 | 3.21 | 3.21 | 95 | 1012.8 |
| 20260502013022 | 55 | 348 | 0.0 | 0.0 | 0.05 | 3.21 | 3.21 | 95 | 1012.9 |
| 20260502012520 | 55 | 339 | 0.0 | 0.0 | 0.05 | 3.21 | 3.21 | 95 | 1013.0 |
| 20260502012017 | 55 | 337 | 0.0 | 0.0 | 0.00 | 3.20 | 3.20 | 95 | 1013.2 |
| 20260502011514 | 56 | 337 | 0.0 | 0.0 | 0.00 | 3.20 | 3.20 | 95 | 1013.4 |
| 20260502011010 | 56 | 335 | 0.0 | 0.0 | 0.00 | 3.20 | 3.20 | 95 | 1013.2 |
| 20260502010508 | 56 | 350 | 0.0 | 0.0 | 0.00 | 3.20 | 3.20 | 95 | 1013.0 |
| 20260502010004 | 56 | 5 | 0.0 | 0.0 | 0.07 | 3.20 | 3.20 | 95 | 1012.5 |
| 20260502005502 | 56 | 335 | 0.0 | 0.0 | 0.12 | 3.20 | 3.20 | 95 | 1011.7 |
| 20260502004959 | 56 | 317 | 0.0 | 0.0 | 0.12 | 3.20 | 3.20 | 95 | 1011.8 |
| 20260502004454 | 57 | 328 | 0.0 | 0.0 | 0.00 | 3.18 | 3.18 | 95 | 1011.7 |
| 20260502003952 | 57 | 333 | 0.0 | 1.0 | 0.07 | 3.18 | 3.18 | 95 | 1012.2 |
| 20260502003449 | 57 | 340 | 0.0 | 0.0 | 0.07 | 3.18 | 3.18 | 95 | 1012.2 |
| 20260502002945 | 57 | 337 | 0.0 | 0.0 | 0.05 | 3.17 | 3.17 | 95 | 1012.5 |
| 20260502002443 | 58 | 329 | 0.0 | 0.0 | 0.12 | 3.17 | 3.17 | 95 | 1012.6 |
| 20260502001940 | 58 | 335 | 0.0 | 0.0 | 0.14 | 3.16 | 3.16 | 95 | 1012.2 |
| 20260502001437 | 57 | 344 | 0.0 | 0.0 | 0.07 | 3.15 | 3.15 | 95 | 1012.3 |
| 20260502000935 | 57 | 347 | 0.0 | 0.0 | 0.05 | 3.14 | 3.14 | 95 | 1012.1 |
| 20260502000434 | 58 | 346 | 0.0 | 0.0 | 0.12 | 3.14 | 3.14 | 95 | 1011.8 |
| 20260501235929 | 58 | 348 | 0.0 | 0.0 | 0.12 | 3.13 | 3.13 | 95 | 1011.3 |
| 20260501235425 | 58 | 338 | 0.0 | 0.0 | 0.17 | 3.12 | 3.12 | 95 | 1011.5 |
| 20260501234920 | 58 | 343 | 0.0 | 0.0 | 0.12 | 3.11 | 3.11 | 95 | 1012.1 |
| 20260501234418 | 58 | 330 | 0.0 | 0.0 | 0.07 | 3.09 | 3.09 | 95 | 1011.9 |
| 20260501233916 | 58 | 333 | 0.0 | 0.0 | 0.12 | 3.09 | 3.09 | 95 | 1011.5 |
| 20260501233413 | 57 | 336 | 0.0 | 0.0 | 0.12 | 3.08 | 3.08 | 95 | 1011.5 |
| 20260501232908 | 58 | 339 | 0.0 | 0.0 | 0.12 | 3.07 | 3.07 | 95 | 1011.4 |
| 20260501232406 | 57 | 335 | 0.0 | 0.0 | 0.12 | 3.06 | 3.06 | 95 | 1010.7 |
| 20260501231903 | 58 | 340 | 0.0 | 0.0 | 0.12 | 3.05 | 3.05 | 95 | 1010.7 |
| 20260501231401 | 58 | 18 | 0.0 | 0.0 | 0.12 | 3.04 | 3.04 | 95 | 1010.6 |
| 20260501230859 | 58 | 5 | 0.0 | 0.0 | 0.31 | 3.04 | 3.04 | 95 | 1010.5 |
| 20260501230358 | 58 | 331 | 0.0 | 0.0 | 0.47 | 3.02 | 3.02 | 95 | 1010.8 |
| 20260501225855 | 58 | 69 | 0.0 | 0.0 | 0.35 | 2.98 | 2.98 | 95 | 1011.0 |
| 20260501225353 | 58 | 1 | 0.0 | 0.0 | 0.12 | 2.94 | 2.94 | 95 | 1010.8 |
| 20260501224848 | 58 | 323 | 0.0 | 0.0 | 0.00 | 2.92 | 2.92 | 95 | 1009.5 |
| 20260501224346 | 58 | 319 | 0.0 | 0.0 | 0.00 | 2.92 | 2.92 | 95 | 1009.3 |
| 20260501223842 | 58 | 333 | 0.0 | 0.0 | 0.00 | 2.92 | 2.92 | 95 | 1009.5 |
| 20260501223338 | 58 | 185 | 0.0 | 0.0 | 0.00 | 2.92 | 2.92 | 95 | 1009.3 |
| 20260501222834 | 58 | 335 | 0.0 | 0.0 | 0.00 | 2.92 | 2.92 | 95 | 1008.9 |
| 20260501222332 | 58 | 338 | 0.0 | 0.0 | 0.00 | 2.92 | 2.92 | 95 | 1009.1 |
| 20260501221828 | 59 | 340 | 0.0 | 0.0 | 0.00 | 2.92 | 2.92 | 95 | 1009.5 |
| 20260501221326 | 59 | 341 | 0.0 | 0.0 | 0.00 | 2.92 | 2.92 | 95 | 1009.9 |
| 20260501220824 | 59 | 317 | 0.0 | 0.0 | 0.07 | 2.92 | 2.92 | 95 | 1010.1 |
| 20260501220321 | 59 | 359 | 0.0 | 0.0 | 0.14 | 2.92 | 2.92 | 95 | 1010.2 |
| 20260501215817 | 59 | 329 | 0.0 | 0.0 | 0.12 | 2.91 | 2.91 | 95 | 1010.6 |
| 20260501215313 | 59 | 331 | 0.0 | 0.0 | 0.17 | 2.90 | 2.90 | 95 | 1011.0 |
| 20260501214809 | 59 | 334 | 0.0 | 0.0 | 0.24 | 2.89 | 2.89 | 95 | 1010.9 |
| 20260501214304 | 59 | 31 | 0.0 | 0.0 | 0.31 | 2.87 | 2.87 | 95 | 1010.8 |
| 20260501213800 | 59 | 337 | 0.0 | 0.0 | 0.31 | 2.85 | 2.85 | 95 | 1010.7 |
| 20260501213257 | 59 | 343 | 0.0 | 0.0 | 0.24 | 2.82 | 2.82 | 95 | 1010.5 |
| 20260501212753 | 59 | 31 | 0.0 | 0.0 | 0.19 | 2.80 | 2.80 | 95 | 1010.5 |
| 20260501212249 | 59 | 339 | 0.0 | 0.0 | 0.12 | 2.78 | 2.78 | 95 | 1010.7 |
| 20260501211747 | 59 | 161 | 0.0 | 0.0 | 0.12 | 2.77 | 2.77 | 95 | 1010.6 |
| 20260501211244 | 59 | 338 | 0.0 | 0.0 | 0.07 | 2.76 | 2.76 | 95 | 1010.2 |
| 20260501210741 | 59 | 336 | 0.0 | 0.0 | 0.12 | 2.76 | 2.76 | 95 | 1009.7 |
| 20260501210237 | 59 | 300 | 0.0 | 0.0 | 0.12 | 2.75 | 2.75 | 95 | 1009.2 |
| 20260501205734 | 59 | 296 | 0.0 | 0.0 | 0.07 | 2.74 | 2.74 | 95 | 1008.7 |
| 20260501205231 | 59 | 337 | 0.0 | 0.0 | 0.07 | 2.74 | 2.74 | 95 | 1009.5 |
| 20260501204728 | 59 | 336 | 0.0 | 0.0 | 0.05 | 2.73 | 2.73 | 95 | 1009.6 |
| 20260501204225 | 59 | 338 | 0.0 | 0.0 | 0.12 | 2.73 | 2.73 | 95 | 1010.0 |
| 20260501203721 | 59 | 58 | 0.0 | 0.0 | 0.12 | 2.72 | 2.72 | 95 | 1010.1 |
| 20260501203219 | 59 | 333 | 0.0 | 0.0 | 0.12 | 2.71 | 2.71 | 95 | 1009.3 |
| 20260501202715 | 60 | 337 | 0.0 | 0.0 | 0.12 | 2.70 | 2.70 | 95 | 1008.9 |
| 20260501202212 | 60 | 54 | 2.0 | 8.0 | 0.12 | 2.69 | 2.69 | 95 | 1008.8 |
| 20260501201709 | 60 | 338 | 0.0 | 0.0 | 0.12 | 2.68 | 2.68 | 95 | 1008.8 |
| 20260501201206 | 60 | 337 | 0.0 | 0.0 | 0.05 | 2.67 | 2.67 | 95 | 1009.5 |
| 20260501200702 | 60 | 336 | 0.0 | 0.0 | 0.07 | 2.66 | 2.66 | 95 | 1009.8 |
| 20260501200200 | 60 | 352 | 0.0 | 0.0 | 0.07 | 2.66 | 2.66 | 95 | 1009.7 |
| 20260501195657 | 60 | 346 | 0.0 | 0.0 | 0.07 | 2.65 | 2.65 | 95 | 1010.3 |
| 20260501195153 | 60 | 342 | 0.0 | 0.0 | 0.12 | 2.65 | 2.65 | 95 | 1009.9 |
| 20260501194649 | 60 | 103 | 0.0 | 0.0 | 0.05 | 2.64 | 2.64 | 95 | 1009.7 |
| 20260501194144 | 60 | 328 | 0.0 | 0.0 | 0.00 | 2.63 | 2.63 | 95 | 1009.6 |
| 20260501193642 | 60 | 327 | 0.0 | 0.0 | 0.12 | 2.63 | 2.63 | 95 | 1009.5 |
| 20260501193140 | 60 | 275 | 0.0 | 0.0 | 0.19 | 2.63 | 2.63 | 95 | 1009.2 |
| 20260501192637 | 60 | 330 | 0.0 | 0.0 | 0.07 | 2.61 | 2.61 | 95 | 1009.2 |
| 20260501192134 | 60 | 333 | 0.0 | 0.0 | 0.05 | 2.60 | 2.60 | 95 | 1009.4 |
| 20260501191632 | 60 | 347 | 0.0 | 0.0 | 0.05 | 2.60 | 2.60 | 95 | 1009.3 |
| 20260501191129 | 60 | 329 | 0.0 | 0.0 | 0.00 | 2.59 | 2.59 | 95 | 1009.1 |
| 20260501190626 | 60 | 327 | 0.0 | 0.0 | 0.00 | 2.59 | 2.59 | 95 | 1008.8 |
| 20260501190125 | 60 | 328 | 0.0 | 0.0 | 0.00 | 2.59 | 2.59 | 95 | 1008.6 |
| 20260501185622 | 60 | 329 | 0.0 | 0.0 | 0.00 | 2.59 | 2.59 | 95 | 1008.5 |
| 20260501185118 | 60 | 332 | 0.0 | 0.0 | 0.00 | 2.59 | 2.59 | 95 | 1008.9 |
| 20260501184614 | 60 | 343 | 0.0 | 0.0 | 0.00 | 2.59 | 2.59 | 95 | 1009.2 |
| 20260501184109 | 60 | 340 | 0.0 | 0.0 | 0.00 | 2.59 | 2.59 | 95 | 1009.3 |
| 20260501183606 | 60 | 338 | 0.0 | 0.0 | 0.00 | 2.59 | 2.59 | 95 | 1008.5 |
| 20260501183103 | 60 | 325 | 0.0 | 0.0 | 0.00 | 2.59 | 2.59 | 95 | 1008.1 |
| 20260501182559 | 61 | 319 | 0.0 | 0.0 | 0.00 | 2.59 | 2.59 | 95 | 1008.2 |
| 20260501182056 | 60 | 322 | 0.0 | 0.0 | 0.07 | 2.59 | 2.59 | 95 | 1007.1 |
| 20260501181553 | 61 | 323 | 0.0 | 0.0 | 0.07 | 2.59 | 2.59 | 95 | 1007.1 |
| 20260501181050 | 61 | 325 | 0.0 | 0.0 | 0.00 | 2.58 | 2.58 | 95 | 1007.7 |
| 20260501180548 | 60 | 315 | 0.0 | 0.0 | 0.00 | 2.58 | 2.58 | 95 | 1007.1 |
| 20260501180044 | 61 | 331 | 0.0 | 0.0 | 0.05 | 2.58 | 2.58 | 95 | 1007.7 |
| 20260501175540 | 61 | 325 | 0.0 | 0.0 | 0.05 | 2.58 | 2.58 | 95 | 1008.2 |
| 20260501175037 | 61 | 342 | 0.0 | 0.0 | 0.00 | 2.57 | 2.57 | 95 | 1009.2 |
| 20260501174535 | 61 | 340 | 0.0 | 0.0 | 0.07 | 2.57 | 2.57 | 95 | 1009.3 |
| 20260501174032 | 61 | 342 | 0.0 | 0.0 | 0.07 | 2.57 | 2.57 | 95 | 1009.3 |
| 20260501173529 | 61 | 333 | 0.0 | 0.0 | 0.00 | 2.56 | 2.56 | 95 | 1009.7 |
| 20260501173026 | 61 | 336 | 0.0 | 0.0 | 0.00 | 2.56 | 2.56 | 95 | 1010.5 |
| 20260501172521 | 61 | 330 | 0.0 | 0.0 | 0.00 | 2.56 | 2.56 | 95 | 1010.5 |
| 20260501172017 | 61 | 355 | 0.0 | 0.0 | 0.05 | 2.56 | 2.56 | 95 | 1010.6 |
| 20260501171514 | 60 | 324 | 0.0 | 0.0 | 0.05 | 2.56 | 2.56 | 95 | 1010.3 |
| 20260501171010 | 60 | 315 | 0.0 | 0.0 | 0.00 | 2.55 | 2.55 | 95 | 1010.7 |
| 20260501170507 | 60 | 288 | 0.0 | 0.0 | 0.00 | 2.55 | 2.55 | 95 | 1010.2 |
| 20260501170004 | 60 | 333 | 0.0 | 0.0 | 0.00 | 2.55 | 2.55 | 95 | 1010.0 |
| 20260501165502 | 60 | 325 | 0.0 | 0.0 | 0.00 | 2.55 | 2.55 | 95 | 1010.2 |
| 20260501165000 | 60 | 308 | 0.0 | 0.0 | 0.00 | 2.55 | 2.55 | 95 | 1010.7 |
| 20260501164458 | 60 | 339 | 0.0 | 0.0 | 0.07 | 2.55 | 2.55 | 95 | 1010.9 |
| 20260501163953 | 60 | 328 | 0.0 | 0.0 | 0.07 | 2.55 | 2.55 | 95 | 1010.9 |
| 20260501163450 | 60 | 346 | 0.0 | 0.0 | 0.05 | 2.54 | 2.54 | 95 | 1011.0 |
| 20260501162946 | 61 | 317 | 0.0 | 0.0 | 0.12 | 2.54 | 2.54 | 95 | 1011.6 |
| 20260501162443 | 61 | 323 | 0.0 | 0.0 | 0.14 | 2.53 | 2.53 | 95 | 1011.8 |
| 20260501161940 | 61 | 17 | 0.0 | 0.0 | 0.19 | 2.52 | 2.52 | 95 | 1012.2 |
| 20260501161437 | 61 | 4 | 0.0 | 0.0 | 0.24 | 2.51 | 2.51 | 95 | 1012.2 |
| 20260501160934 | 61 | 7 | 1.0 | 1.0 | 0.17 | 2.49 | 2.49 | 95 | 1012.0 |
| 20260501160430 | 61 | 338 | 0.0 | 0.0 | 0.24 | 2.48 | 2.48 | 95 | 1011.9 |
| 20260501155928 | 61 | 339 | 0.0 | 0.0 | 0.42 | 2.46 | 2.46 | 95 | 1012.3 |
| 20260501155425 | 61 | 340 | 0.0 | 0.0 | 0.54 | 2.44 | 2.44 | 95 | 1012.5 |
| 20260501154921 | 61 | 36 | 0.0 | 0.0 | 0.47 | 2.39 | 2.39 | 95 | 1012.8 |
| 20260501154419 | 61 | 336 | 0.0 | 0.0 | 0.47 | 2.36 | 2.36 | 95 | 1012.6 |
| 20260501153916 | 60 | 336 | 0.0 | 0.0 | 0.31 | 2.31 | 2.31 | 95 | 1012.5 |
| 20260501153414 | 60 | 326 | 0.0 | 0.0 | 0.12 | 2.28 | 2.28 | 95 | 1012.6 |
| 20260501152909 | 60 | 335 | 0.0 | 0.0 | 0.00 | 2.26 | 2.26 | 95 | 1012.7 |